Danville, VA

4:47 AM EDT on March 24, 2017 (GMT -0400)
Danville Regional

Weather History for KDAN - April, 2014

Change the Weather History Date:

Saturday, April 5, 2014

  Actual Average Record
Temperature  
Mean Temperature 59 °F 55 °F  
Max Temperature 68 °F 66 °F 89 °F (2010)
Min Temperature 49 °F 44 °F 29 °F (2015)
Degree Days  
Heating Degree Days 6 10  
Month to date heating degree days 15 55  
Since 1 July heating degree days 3665 3566  
Cooling Degree Days 0 1  
Month to date cooling degree days 1 4  
Year to date cooling degree days 1 7  
Growing Degree Days 9 (Base 50)    
Moisture  
Dew Point 35 °F    
Average Humidity 44    
Maximum Humidity 60    
Minimum Humidity 27    
Precipitation  
Precipitation 0.00 in 0.12 in 1.16 in (1977)
Month to date precipitation T 0.64  
Year to date precipitation 8.32 11.18  
Snow  
Snow 0.00 in - - ()
Month to date snowfall 0.0  
Since 1 July snowfall 13.4  
Snow Depth 0.00 in    
Sea Level Pressure  
Sea Level Pressure 29.94 in    
Wind  
Wind Speed 9 mph (NNW)    
Max Wind Speed 18 mph    
Max Gust Speed 27 mph    
Visibility 10 miles    
Events      
T = Trace of Precipitation, MM = Missing Value Source: NWS Daily Summary

Daily Weather History Graph

Daily Weather History Graph

Search for Another Location

Airport or City:

Trip Planner

Search our weather history database for the weather conditions in past years. The results will help you decide how hot, cold, wet, or windy it might be!

Date:

Astronomy

Apr. 05, 2014 Rise Set
Actual Time 6:57 AM EDT 7:43 PM EDT
Civil Twilight 6:31 AM EDT 8:09 PM EDT
Nautical Twilight 6:00 AM EDT 8:40 PM EDT
Astronomical Twilight 5:28 AM EDT 9:11 PM EDT
Moon 11:09 AM EDT (4/5) 12:45 AM EDT (4/5)
Length of Visible Light 13h 37m
Length of Day
12h 45m
Waxing Crescent, 34% of the Moon is Illuminated
Apr 5
Waxing Crescent
Apr 7
First Quarter
Apr 15
Full
Apr 22
Last Quarter
Apr 29
New

Hourly Weather History & Observations

Time (EDT) Temp. Dew Point Humidity Pressure Visibility Wind Dir Wind Speed Gust Speed Precip Events Conditions
12:53 AM 66.0 °F 46.9 °F 50% 29.77 in 10.0 mi WNW 4.6 mph - N/A   Clear
1:53 AM 64.0 °F 48.0 °F 56% 29.78 in 10.0 mi West 5.8 mph - N/A   Clear
2:53 AM 63.0 °F 48.0 °F 58% 29.78 in 10.0 mi WNW 5.8 mph - N/A   Clear
3:53 AM 62.1 °F 48.0 °F 60% 29.80 in 10.0 mi WNW 6.9 mph - N/A   Clear
4:53 AM 60.1 °F 46.0 °F 60% 29.81 in 10.0 mi NNW 12.7 mph - N/A   Clear
5:53 AM 57.9 °F 43.0 °F 58% 29.85 in 10.0 mi WNW 9.2 mph - N/A   Clear
6:53 AM 55.9 °F 37.9 °F 51% 29.88 in 10.0 mi WNW 10.4 mph - N/A   Clear
7:53 AM 54.0 °F 35.1 °F 49% 29.92 in 10.0 mi NW 10.4 mph - N/A   Clear
8:53 AM 55.0 °F 32.0 °F 42% 29.94 in 10.0 mi WNW 15.0 mph 26.5 mph N/A   Clear
9:53 AM 55.9 °F 33.1 °F 42% 29.97 in 10.0 mi NW 12.7 mph 18.4 mph N/A   Clear
10:53 AM 57.9 °F 30.9 °F 36% 29.98 in 10.0 mi NW 12.7 mph - N/A   Clear
11:53 AM 59.0 °F 28.9 °F 32% 29.99 in 10.0 mi WNW 9.2 mph - N/A   Clear
12:53 PM 62.1 °F 30.9 °F 31% 29.98 in 10.0 mi North 10.4 mph 19.6 mph N/A   Clear
1:53 PM 63.0 °F 30.9 °F 30% 29.97 in 10.0 mi WNW 11.5 mph 19.6 mph N/A   Clear
2:53 PM 66.0 °F 32.0 °F 28% 29.96 in 10.0 mi NNE 9.2 mph - N/A   Clear
3:53 PM 66.9 °F 33.1 °F 28% 29.96 in 10.0 mi North - - N/A   Clear
4:53 PM 66.9 °F 32.0 °F 27% 29.96 in 10.0 mi NNW 5.8 mph - N/A   Clear
5:53 PM 64.9 °F 30.9 °F 28% 29.97 in 10.0 mi North 5.8 mph - N/A   Clear
6:53 PM 62.1 °F 28.0 °F 28% 29.99 in 10.0 mi NNE 12.7 mph - N/A   Clear
7:53 PM 57.9 °F 30.0 °F 35% 30.02 in 10.0 mi North 8.1 mph - N/A   Clear
8:53 PM 54.0 °F 30.9 °F 41% 30.05 in 10.0 mi NNE 6.9 mph - N/A   Clear
9:53 PM 54.0 °F 28.9 °F 38% 30.07 in 10.0 mi NNE 9.2 mph - N/A   Clear
10:53 PM 52.0 °F 28.0 °F 40% 30.08 in 10.0 mi North 9.2 mph - N/A   Clear
11:53 PM 51.1 °F 28.0 °F 41% 30.09 in 10.0 mi NNE 8.1 mph - N/A   Clear